Home   Weather   Vilnius   Past weeks

Flag for Lithuania Past Weather in Vilnius, Lithuania — Yesterday and Last 2 Weeks

Now
37 °F

Sunny.


Feels Like: 35 °F
Forecast: 38 / 49 °F
Wind: 3 mph from East

Location: Vilnius Airport

Current Time: Apr 28, 2017 at 8:00:46 am

Latest Report: Apr 28, 2017 at 7:20 am


Visibility: 10 mi

Pressure: 30.07 "Hg

Humidity: 93%

Dew Point: 36 °F

Location of VilniusLocation

Past Weather in Vilnius — Graph

°F

Vilnius Temperature Yesterday

Maximum temperature yesterday: 46 °F (at 11:50 am)
Minimum temperature yesterday: 34 °F (at 5:20 am)
Average temperature yesterday: 42 °F

High & Low Weather Summary for the Past Weeks

 TemperatureHumidityPressure
High57 °F (Apr 25, 5:20 pm)100% (Apr 14, 4:50 am)30.45 "Hg (Apr 14, 4:50 am)
Low21 °F (Apr 18, 5:20 am)26% (Apr 20, 3:55 pm)29.39 "Hg (Apr 13, 6:20 am)
Average37 °F70%29.86 "Hg
* Reported Apr 13 6:20 am — Apr 28 6:50 am, Vilnius, Weather by CustomWeather, © 2017

Note: Actual official high and low records may vary slightly from our data, if they occured in-between our weather recording intervals... More about our weather records

Advertising

Vilnius Weather History for the Previous 24 Hours

Scroll right to see more
 ConditionsComfort  
Time TempWeatherWind HumidityBarometerVisibility
6:50 am
Fri, Apr 28
36 °FSunny.5 mph93%30.04 "Hg10 mi
6:20 am34 °FSunny.5 mph100%30.04 "Hg10 mi
5:50 am36 °FSunny.3 mph87%30.04 "Hg10 mi
5:20 am36 °FClear.2 mph93%30.04 "Hg10 mi
4:50 am36 °FClear.2 mph93%30.04 "Hg10 mi
4:20 am36 °FClear.5 mph93%30.04 "Hg10 mi
3:50 am36 °FClear.2 mph93%30.04 "Hg10 mi
3:20 am37 °FClear.3 mph87%30.04 "Hg10 mi
2:50 am37 °FClear.3 mph93%30.04 "Hg10 mi
2:20 am37 °FClear.5 mph93%30.04 "Hg10 mi
1:50 am37 °FClear.5 mph93%30.04 "Hg10 mi
1:20 am37 °FClear.6 mph93%30.04 "Hg10 mi
12:50 am37 °FClear.6 mph93%30.04 "Hg10 mi
12:20 am39 °FClear.6 mph87%30.04 "Hg10 mi
11:50 pm
Thu, Apr 27
39 °FClear.7 mph87%30.01 "Hg10 mi
11:20 pm39 °FClear.6 mph87%30.01 "Hg10 mi
10:50 pm39 °FClear.5 mph81%30.01 "Hg10 mi
10:20 pm41 °FClear.6 mph76%30.01 "Hg10 mi
9:50 pm41 °FClear.6 mph76%30.01 "Hg10 mi
9:20 pm41 °FClear.6 mph76%29.98 "Hg10 mi
8:50 pm41 °FClear.6 mph76%30.01 "Hg10 mi
8:20 pm43 °FSunny.7 mph71%29.98 "Hg10 mi
7:50 pm45 °FSunny.7 mph66%29.98 "Hg10 mi
7:20 pm46 °FSunny.7 mph62%29.95 "Hg10 mi
6:50 pm46 °FPassing clouds.6 mph57%29.98 "HgN/A
6:20 pm46 °FPartly sunny.7 mph57%29.98 "HgN/A
5:50 pm46 °FSunny.8 mph62%29.98 "Hg10 mi
5:20 pm46 °FSunny.6 mph57%29.95 "Hg10 mi
4:50 pm46 °FPassing clouds.6 mph57%29.95 "HgN/A
4:20 pm46 °FPassing clouds.6 mph53%29.95 "HgN/A
3:50 pm46 °FSunny.6 mph57%29.95 "Hg10 mi
3:20 pm46 °FPartly sunny.7 mph57%29.95 "HgN/A
2:50 pm46 °FMore clouds than sun.6 mph53%29.95 "HgN/A
2:20 pm46 °FPassing clouds.5 mph53%29.95 "HgN/A
1:50 pm46 °FMore clouds than sun.5 mph53%29.92 "HgN/A
1:20 pm46 °FMore clouds than sun.3 mph53%29.92 "HgN/A
12:50 pm46 °FPartly sunny.5 mph53%29.95 "HgN/A
12:20 pm46 °FMore clouds than sun.5 mph53%29.92 "HgN/A
11:50 am46 °FPassing clouds.5 mph57%29.92 "HgN/A
11:20 am45 °FPassing clouds.5 mph66%29.92 "HgN/A
10:50 am45 °FPassing clouds.6 mph61%29.92 "HgN/A
10:20 am45 °FPassing clouds.7 mph61%29.92 "HgN/A
9:50 am43 °FSunny.7 mph71%29.92 "Hg10 mi
9:20 am43 °FSunny.6 mph71%29.92 "Hg10 mi
8:50 am41 °FSunny.6 mph81%29.89 "Hg10 mi
8:20 am39 °FSunny.6 mph87%29.89 "Hg10 mi
Weather by CustomWeather, © 2017

See weather overviewHow to use our weather pages